sat.trackr.live / text

‹ back to catalog

YUNYAO-1 43

NORAD 63344 · 2025-059A

PAYLOAD ACTIVE UNKNOWN

§ Identity

Operator
Country
PRC
Launch date
2025-03-21
Launch site
JSC
Launch vehicle
Mass (kg)
RCS (m²)

External: N2YO · Heavens-Above · Gunter

§ Orbital elements

Epoch: 2026-05-25T04:07:23.805120Z

Period
95.31 min
Inclination
97.6110°
Eccentricity
0.0013381
Mean motion
15.10840893 rev/d
Perigee alt
524.4 km
Apogee alt
542.9 km
Semi-major
6,911.8 km
B*
1.9245e-4
RAAN
326.6623°
Arg perigee
229.3083°
Mean anomaly
130.6985°
Rev number
6,482

§ Raw data

YUNYAO-1 431 63344U 25059A   26145.17180330  .00003140  00000+0  19245-3 0  99932 63344  97.6110 326.6623 0013381 229.3083 130.6985 15.10840893 64828

JSON: /api/v1/satellites/63344 · /tle

For live sub-satellite position, see the globe view (requires WebGL).

§ Visibility from observer

Set your observer location to see the next 7 days of passes ≥ 10°. The values pass through the URL so the page stays shareable.

No JS? Fill the form by hand. The geolocation button needs JavaScript.